SCP
-0 0 0 0 0 0 0 0 -0 -0 0 0 0 -0 -0 0 -0 0 0 -0 0 -0 -0 -0 -0 -0 -0 -0 -0 -0 -0 -0 -0 -0 0 0 0 0 0 0 0 0 0 0 0 0 0 0 0
0 0 0 0 0 0 0 0 0 -0 -0 0 0 0 0 0 -0 -0 0 -0 -0 -0 -0 -0 -0 -0 -0 -0 -0 -0 -0 -0 -0 -0 -0 0 0 0 0 0 0 0 0 0 0 0 0 0 0
-0 0 0 0 -0 -0 -0 0 0 -0 0 0 0 0 0 0 0 0 0 -0 -0 -0 -0 -0 -0 -0 -0 -0 -0 -0 -0 -0 -0 -0 -0 -0 0 0 0 0 0 0 0 0 0 0 0 0 0
0 0 0 -0 -0 -0 -0 0 0 -0 0 0 0 -0 0 0 0 0 0 -0 -0 -0 -0 -0 -0 -0 -0 -0 -0 -0 -0 -0 -0 -0 -0 0 0 0 0 0 0 0 0 0 0 0 0 0 0
0 0 0 0 -0 0 0 0 0 0 0 0 0 0 0 0 0 0 0 -0 -0 -0 -0 -0 -0 -0 0 -0 -0 0 0 0 -0 -0 0 0 0 0 0 0 0 0 0 0 0 0 0 0 0
0 0 0 0 0 0 0 0 0 0 0 0 0 0 0 0 0 0 0 -0 -0 -0 -0 -0 -0 -0 0 -0 0 0 0 0 0 0 0 0 0 0 0 0 0 0 0 0 0 0 0 0 0
0 0 0 0 0 0 0 0 0 0 0 0 0 0 0 0 0 0 0 0 0 0 -0 -0 -0 -0 0 0 0 0 0 0 0 0 0 0 0 0 0 0 0 0 0 0 0 0 0 0 0
0 0 0 0 0 0 0 0 0 0 0 0 0 0 0 0 0 0 0 0 0 0 0 -0 0 -0 -0 -0 0 0 0 0 0 0 0 0 0 0 0 0 0 0 0 0 0 0 0 0 0
0 0 0 0 0 0 0 0 0 0 0 0 0 0 0 0 0 0 0 0 0 0 0 0 0 0 -0 -0 0 0 0 0 0 0 0 0 0 0 0 0 0 0 0 0 0 0 0 0 0
0 0 0 0 0 0 0 0 0 0 0 0 0 0 0 0 0 0 0 0 0 0 0 0 0 0 0 0 0 0 0 0 0 0 0 0 0 0 0 0 0 0 0 0 0 0 0 0 0
0 0 0 0 0 0 0 0 0 0 0 0 0 0 0 0 0 0 0 0 0 0 0 0 0 0 0 0 0 0 0 0 0 0 0 0 0 0 0 0 0 0 0 0 0 0 0 0 0
0 0 0 0 0 0 0 0 0 0 0 0 -0 -0 0 0 0 0 0 0 0 0 0 0 0 0 0 0 0 0 0 0 0 0 0 0 0 0 0 0 0 0 0 0 0 0 0 0 0
0 0 0 0 0 0 0 0 0 0 0 0 -0 0 0 0 0 0 0 0 0 0 0 0 0 0 0 0 0 0 0 0 0 0 0 0 0 0 0 0 0 0 0 0 0 0 0 0 0
0 0 0 0 0 0 0 0 0 0 0 0 0 0 0 0 0 0 0 0 0 0 0 0 0 0 0 0 0 0 0 0 0 0 0 0 0 0 0 0 0 0 0 0 0 0 0 0 0
0 0 0 0 0 0 0 0 0 0 0 0 0 0 0 0 0 0 0 0 0 0 0 0 0 0 0 0 0 0 0 0 0 0 0 0 0 0 0 0 0 0 0 0 0 0 0 0 0
0 0 0 0 0 0 0 0 0 0 0 0 0 0 0 0 0 0 0 0 0 0 0 0 0 0 0 0 0 0 0 0 0 0 0 0 0 0 0 0 0 0 0 0 0 0 0 0 0
0 0 0 0 0 0 0 0 0 0 0 0 0 0 0 0 0 0 0 0 0 0 0 0 0 0 0 0 0 0 0 0 0 0 0 0 0 0 0 0 0 0 0 0 0 0 0 0 0
0 0 0 0 0 0 0 -0 0 0 0 0 0 0 0 0 0 0 0 0 0 0 0 0 0 0 0 0 0 0 0 0 0 0 0 0 0 0 0 0 0 0 0 0 0 0 0 0 0
0 0 0 0 0 0 0 0 0 0 -0 -0 0 0 0 0 0 0 0 0 0 0 0 0 0 0 0 0 0 0 0 0 0 0 0 0 0 0 0 0 0 0 0 0 0 0 0 0 0
0 0 0 0 0 0 0 0 0 -0 -0 0 0 0 0 0 0 0 0 0 0 0 0 0 0 0 0 0 0 0 0 0 0 0 0 0 0 0 0 0 0 0 0 0 0 0 0 0 0
0 0 0 0 0 0 0 0 0 0 0 0 0 0 0 0 0 0 0 0 0 0 0 0 0 0 0 0 0 0 0 0 0 0 0 0 0 0 0 0 0 0 0 0 0 0 0 0 0
0 0 0 0 0 0 0 0 0 0 0 0 0 0 0 0 0 0 0 0 0 0 0 0 0 0 0 0 0 0 0 0 0 0 0 0 0 0 0 0 0 0 0 0 0 0 0 0 0
0 0 0 0 0 0 0 0 0 0 0 0 0 0 0 0 0 0 0 0 0 0 0 0 0 0 0 0 0 0 0 0 0 0 0 0 0 0 0 0 0 0 0 0 0 0 0 0 0
0 0 0 0 0 0 0 0 0 0 0 0 0 0 0 0 0 0 0 0 0 0 0 0 0 0 0 0 0 0 0 0 0 0 0 0 0 0 0 0 0 0 0 0 0 0 0 0 0
0 0 0 0 0 0 0 0 0 0 0 0 0 0 0 0 0 0 0 0 0 0 -0 -0 -0 0 0 0 -0 0 0 0 0 0 0 0 0 0 0 0 0 0 0 0 0 0 0 0 0
0 0 0 0 0 0 0 0 0 0 0 0 0 0 0 0 0 0 0 0 -0 -0 -0 -0 -0 -0 -0 -0 -0 0 0 0 0 0 0 0 0 0 0 0 0 0 0 0 0 0 0 0 0
0 0 0 0 0 0 -0 0 0 0 0 0 0 0 0 0 -0 0 0 0 -0 -0 -0 -0 -0 -0 -0 -0 -0 0 0 0 0 0 0 0 0 0 0 0 0 0 0 0 0 0 0 0 0
0 0 0 0 0 0 0 0 0 0 0 0 0 0 0 0 -0 -0 -0 -0 -0 -0 -0 -0 -0 -0 -0 -0 -0 -0 -0 -0 -0 0 0 0 0 0 0 0 0 0 0 0 0 0 0 0 0
0 0 0 0 0 0 0 0 0 0 0 0 0 0 -0 0 0 0 0 -0 -0 -0 -0 0 0 0 0 -0 -0 -0 -0 0 0 -0 0 0 0 0 -0 0 0 0 0 0 0 0 0 0 0
0 0 0 0 0 0 0 0 0 0 0 0 -0 0 0 0 0 -0 -0 -0 0 0 0 0 0 0 0 0 0 0 0 0 0 0 0 0 0 0 0 -0 0 0 0 0 0 0 0 0 0
Wind_Speed_500mb
13 12 11 10 11 7 9 6 8 6 3 6 5 11 18 18 13 8 4 5 14 31 38 42 41 41 39 35 33 31 29 27 25 23 22 20 19 17 14 13 13 14 16 14 11 12 13 11 8
6 6 6 11 9 10 11 6 0 10 11 7 8 11 13 11 4 5 6 8 15 28 40 43 43 41 40 36 34 32 31 29 27 26 25 23 22 21 20 19 19 20 21 16 16 17 16 14 11
2 1 10 6 7 11 10 3 6 9 10 8 7 7 13 5 3 2 9 8 18 25 39 41 43 42 40 38 37 36 33 32 29 27 27 26 28 26 26 24 24 24 23 19 19 20 17 15 12
3 5 9 10 12 11 8 14 11 16 1 7 8 15 7 12 3 13 10 10 22 26 34 40 41 45 39 39 39 39 37 33 30 28 31 31 29 22 20 23 25 25 22 21 20 18 15 10 6
4 8 9 9 13 7 9 14 12 13 8 7 8 6 9 16 16 21 20 14 22 28 32 38 42 45 46 42 42 40 37 35 28 33 34 34 26 23 22 24 23 23 21 21 18 14 10 7 5
10 8 11 11 10 7 6 4 8 12 10 6 8 20 12 11 8 12 14 18 21 29 34 37 41 44 47 47 45 44 42 39 38 41 42 37 27 22 22 24 22 21 21 21 16 12 10 7 6
14 10 16 16 18 12 5 3 9 8 11 12 9 11 6 10 9 14 15 17 23 30 35 39 41 46 49 50 49 47 48 47 48 47 43 31 28 25 24 24 24 23 22 19 16 13 11 9 9
8 8 11 10 10 17 9 7 6 13 15 5 6 10 9 15 15 23 22 21 25 32 37 42 44 47 51 52 51 51 52 53 51 46 39 34 30 28 28 27 26 25 25 24 20 16 14 12 12
5 10 16 18 14 6 7 12 9 11 24 24 23 28 20 29 33 32 29 29 31 36 41 44 47 47 50 53 53 54 57 54 51 50 44 39 35 34 34 32 31 29 27 26 23 20 18 16 15
15 16 19 11 17 17 23 21 30 25 29 38 40 40 31 43 42 39 38 36 39 40 44 47 49 51 50 49 49 60 63 62 61 57 51 44 42 40 38 36 34 34 31 29 26 22 20 18 16
11 18 24 25 29 32 31 33 37 34 33 45 38 25 24 29 42 43 42 40 39 41 47 48 52 53 56 57 59 58 68 70 71 64 58 50 48 48 44 42 41 40 36 33 29 26 24 20 18
20 32 39 37 22 18 33 39 38 36 53 54 53 48 45 41 45 42 44 41 40 41 45 49 54 58 60 62 64 63 61 70 72 67 62 58 56 55 50 50 48 47 44 42 37 33 29 26 23
30 34 38 37 37 40 44 50 42 50 56 62 56 49 44 42 41 40 42 39 39 45 48 52 57 60 64 66 67 63 65 67 71 66 66 66 62 59 56 54 52 51 49 48 42 39 35 32 28
27 27 41 49 48 43 38 48 39 55 33 34 34 36 37 38 39 35 36 38 37 39 47 50 58 59 62 69 68 70 67 65 64 65 64 68 66 64 62 59 57 56 54 51 48 44 41 38 34
22 25 34 51 54 28 19 29 27 47 32 37 39 37 39 45 44 40 39 39 43 46 39 39 44 56 61 67 69 70 69 66 67 66 67 71 68 69 67 65 64 61 59 56 54 52 49 44 38
22 27 27 15 6 3 16 31 33 22 24 31 46 62 61 59 53 46 43 42 39 38 43 44 45 50 57 61 68 70 72 73 70 70 71 73 72 73 74 71 69 66 65 62 61 57 52 47 43
27 29 35 31 28 2 21 24 24 49 54 60 75 66 54 50 42 33 28 25 27 26 30 35 42 47 47 57 61 65 69 73 73 71 74 74 75 76 80 78 75 72 72 70 68 63 57 55 49
33 40 41 30 29 31 36 47 41 46 58 65 66 59 46 33 18 16 16 8 7 11 14 18 26 33 39 46 54 61 62 71 74 77 79 79 81 79 81 84 83 80 77 75 72 68 64 59 52
44 43 48 42 41 44 46 46 42 58 66 63 50 34 21 14 16 31 35 39 36 31 22 10 5 14 22 31 38 45 52 60 66 73 77 80 86 87 86 88 90 90 86 81 76 73 70 65 61
34 44 46 40 33 26 39 46 50 44 37 24 21 16 8 26 38 39 45 48 48 42 38 32 24 16 9 12 24 32 34 40 49 51 61 71 79 87 90 92 96 97 93 88 85 82 80 72 69
40 40 46 49 38 38 36 36 14 16 25 33 36 38 41 47 41 43 47 47 44 45 43 37 31 23 16 10 12 20 30 41 46 48 57 64 72 80 86 91 96 100 99 97 94 93 93 88 82
39 30 27 28 22 17 13 16 33 30 6 30 46 45 47 45 43 42 44 49 50 49 44 39 35 28 21 17 14 14 20 25 28 30 45 52 60 64 74 87 94 100 106 105 103 100 99 95 93
24 13 21 21 23 30 27 16 8 8 20 25 34 40 40 40 41 41 42 44 48 48 49 44 41 35 30 25 21 18 19 25 28 25 34 51 56 58 58 67 77 94 107 109 108 109 109 107 102
11 19 27 30 14 16 28 30 10 9 15 30 26 31 36 37 36 37 36 40 50 50 46 44 45 44 43 36 29 25 23 26 30 33 31 44 55 53 51 55 66 74 88 106 110 112 113 111 109
12 14 15 10 12 13 13 14 22 9 19 26 24 25 28 28 30 34 37 37 40 44 45 45 43 39 37 40 43 45 40 34 32 31 32 36 47 54 56 50 53 64 73 85 103 112 116 115 115
18 22 13 11 20 31 27 15 12 19 33 29 29 25 24 29 30 31 29 29 33 37 39 38 38 38 44 47 40 37 39 47 47 42 41 40 41 44 50 58 54 53 59 72 85 102 115 118 120
5 15 22 13 7 11 19 30 17 28 25 23 18 19 23 24 27 30 30 35 43 40 40 41 42 43 48 48 50 48 50 47 45 47 48 47 46 50 47 53 64 65 59 59 72 90 100 114 121
11 9 7 5 13 30 27 24 21 24 16 11 16 23 29 35 39 41 41 42 39 39 42 41 42 46 51 53 54 59 54 50 47 47 49 50 54 55 53 54 57 56 65 64 67 76 87 100 114
9 10 9 4 9 12 19 18 11 16 14 14 17 18 21 25 30 31 33 35 37 37 41 43 48 52 55 60 63 60 58 55 52 52 52 52 52 53 58 58 57 58 62 61 71 76 79 88 101
16 25 25 12 11 16 26 35 9 20 19 14 7 13 18 18 20 24 28 31 37 45 49 53 57 59 59 58 59 60 61 62 62 58 57 58 57 53 53 56 60 59 60 63 64 75 83 85 94
Wind_Direction_500mb
299 305 313 298 262 228 269 87 334 312 288 33 302 295 336 311 316 1 12 240 189 194 202 198 198 197 194 195 199 200 203 203 207 212 216 217 220 233 236 238 249 259 271 284 294 295 291 296 291
305 304 286 281 260 269 74 66 300 27 4 312 280 269 273 297 302 276 308 247 206 194 199 202 204 203 203 204 204 206 208 211 214 221 232 235 240 237 237 244 250 256 262 272 282 287 284 283 276
11 224 268 271 288 339 351 71 12 335 315 266 284 263 305 309 279 235 265 252 211 201 200 207 208 209 207 209 210 211 214 219 226 237 240 246 243 242 238 237 242 251 262 273 277 280 283 279 270
301 240 232 258 305 326 292 325 336 304 235 232 281 271 232 247 223 241 274 260 211 207 202 212 210 211 209 210 210 212 216 220 224 231 241 239 244 240 232 233 241 252 262 267 271 276 278 275 266
288 251 263 255 289 289 297 290 298 281 291 239 227 272 277 288 274 272 271 258 216 214 209 214 209 211 213 211 213 214 216 214 216 225 236 244 240 233 236 247 255 262 264 264 268 264 253 248 248
244 282 251 277 336 307 282 333 279 268 269 225 246 264 276 259 308 309 282 250 227 218 218 217 211 213 214 214 215 218 217 215 214 225 235 242 242 238 239 250 251 249 254 260 256 242 236 233 239
279 266 279 290 286 281 234 169 231 298 277 257 253 270 263 238 260 303 294 254 235 219 224 220 218 216 215 219 220 219 219 214 217 222 237 240 241 243 242 241 241 247 249 244 236 234 240 251 265
273 273 271 244 278 284 171 202 243 268 293 249 234 255 255 197 269 294 279 258 243 226 229 223 222 221 218 218 219 217 214 215 223 233 238 238 240 241 243 242 239 233 228 228 229 232 239 249 258
237 253 266 269 265 274 181 265 185 265 270 260 246 261 298 275 286 281 271 256 247 238 235 228 225 224 221 221 221 216 218 224 230 241 236 234 233 237 238 237 236 230 223 222 223 228 236 241 245
226 244 274 287 282 274 295 273 282 276 268 270 261 258 257 277 273 269 265 256 249 247 246 237 232 226 222 220 221 220 224 229 235 242 238 233 230 234 235 236 234 230 225 224 226 228 231 234 236
227 250 274 289 277 286 284 282 275 261 268 267 278 284 281 269 267 264 259 254 248 256 246 246 240 233 227 223 223 228 225 231 237 240 237 232 230 230 231 233 229 229 228 230 231 233 237 240 241
261 252 270 281 286 276 270 282 278 263 265 277 279 284 282 270 262 262 262 254 247 240 245 248 241 238 234 230 232 230 230 233 239 238 236 234 230 231 230 230 228 228 226 227 229 232 235 237 241
247 271 275 278 274 267 279 270 268 271 277 278 281 280 275 271 268 263 262 256 249 243 240 243 245 239 237 236 234 235 233 235 241 242 237 235 235 235 235 233 232 229 227 227 228 230 232 233 234
302 289 283 279 274 268 265 273 279 271 283 283 285 281 278 272 272 268 261 258 264 262 251 248 246 246 239 238 238 239 237 237 243 242 241 240 237 238 238 237 235 234 231 230 229 229 229 230 231
287 296 294 281 266 253 262 269 245 274 268 277 283 287 284 283 282 270 269 262 262 266 257 255 255 249 243 243 242 238 240 239 241 242 239 242 239 238 239 238 236 236 235 233 231 231 230 230 230
275 276 280 310 70 234 201 279 295 339 323 296 288 287 286 287 285 282 277 272 266 261 258 256 255 251 246 244 245 244 242 244 243 245 244 244 243 239 241 240 239 237 237 234 233 232 232 231 230
245 269 279 294 295 305 216 288 306 307 297 290 284 287 295 295 297 294 288 278 272 264 257 255 249 247 245 243 243 246 246 246 247 245 246 247 247 242 241 242 243 241 239 236 233 232 232 231 230
280 285 293 279 292 279 277 280 294 300 293 279 282 296 302 306 344 359 341 354 329 300 263 243 255 251 250 244 242 243 245 247 246 247 248 248 249 246 242 243 243 242 240 236 233 233 231 231 230
280 286 283 284 290 291 289 297 301 292 281 287 289 301 317 19 49 70 53 56 60 51 53 40 293 279 263 253 247 248 247 252 252 252 250 250 251 249 245 244 243 243 242 241 238 234 231 227 226
282 280 283 286 291 296 295 293 289 286 276 301 327 338 43 102 85 56 52 58 60 61 59 51 50 42 13 273 269 260 260 259 259 262 261 254 253 253 249 246 244 244 243 240 237 234 232 227 228
266 275 286 295 307 298 290 281 228 315 301 69 71 82 96 83 67 55 44 45 55 54 53 54 52 43 36 2 305 284 272 260 266 270 269 264 260 257 255 251 246 246 246 243 241 238 235 231 229
280 305 308 304 308 296 23 289 302 273 8 94 81 80 73 62 53 48 53 52 50 50 47 45 42 44 44 31 6 319 287 278 280 284 277 277 272 268 264 259 253 250 249 245 244 241 239 235 234
283 334 306 296 278 286 273 246 254 292 144 104 79 78 71 64 59 48 40 44 48 46 43 40 34 34 34 37 33 10 333 312 310 287 273 283 282 280 273 266 262 254 252 250 248 244 239 237 236
312 286 278 257 273 261 258 230 289 118 125 108 78 67 66 59 55 54 45 35 36 38 39 34 30 30 28 27 29 18 357 346 335 325 301 283 286 285 282 271 265 261 255 252 249 248 245 241 238
243 279 315 278 211 257 78 328 251 30 89 116 110 83 68 60 48 35 29 29 25 25 22 18 16 18 17 12 11 8 1 354 343 329 314 299 291 284 293 290 275 268 263 258 252 248 247 245 243
276 260 247 285 292 297 304 262 240 82 110 104 98 84 60 45 37 34 33 31 27 23 19 16 12 7 4 8 8 3 356 356 352 338 321 303 289 282 285 288 287 280 271 264 258 253 249 247 245
105 218 250 246 278 269 252 262 142 128 126 114 93 68 49 43 36 27 21 19 20 14 14 10 7 2 3 3 2 1 359 354 349 345 342 329 306 298 288 277 276 285 280 271 263 258 255 251 247
243 352 211 145 242 257 260 248 264 206 147 86 50 38 22 10 12 12 12 9 9 5 2 0 360 359 358 357 357 359 356 353 348 342 340 338 334 327 307 292 286 283 279 277 267 260 257 253 251
215 236 212 342 236 247 259 252 115 90 83 58 32 18 6 2 10 5 3 4 1 358 359 356 354 355 353 352 352 349 346 346 345 343 339 335 334 332 329 315 294 285 279 277 271 267 260 255 252
263 268 252 243 231 237 261 258 144 109 95 73 33 351 350 357 0 2 357 357 355 353 349 349 347 347 347 346 343 342 339 338 338 338 338 336 333 329 326 325 319 299 283 277 271 267 264 258 252
Wind_Speed_850mb
13 12 11 10 11 7 9 6 8 6 3 6 5 11 18 18 13 8 4 5 14 31 38 42 41 41 39 35 33 31 29 27 25 23 22 20 19 17 14 13 13 14 16 14 11 12 13 11 8
6 6 6 11 9 10 11 6 0 10 11 7 8 11 13 11 4 5 6 8 15 28 40 43 43 41 40 36 34 32 31 29 27 26 25 23 22 21 20 19 19 20 21 16 16 17 16 14 11
2 1 10 6 7 11 10 3 6 9 10 8 7 7 13 5 3 2 9 8 18 25 39 41 43 42 40 38 37 36 33 32 29 27 27 26 28 26 26 24 24 24 23 19 19 20 17 15 12
3 5 9 10 12 11 8 14 11 16 1 7 8 15 7 12 3 13 10 10 22 26 34 40 41 45 39 39 39 39 37 33 30 28 31 31 29 22 20 23 25 25 22 21 20 18 15 10 6
4 8 9 9 13 7 9 14 12 13 8 7 8 6 9 16 16 21 20 14 22 28 32 38 42 45 46 42 42 40 37 35 28 33 34 34 26 23 22 24 23 23 21 21 18 14 10 7 5
10 8 11 11 10 7 6 4 8 12 10 6 8 20 12 11 8 12 14 18 21 29 34 37 41 44 47 47 45 44 42 39 38 41 42 37 27 22 22 24 22 21 21 21 16 12 10 7 6
14 10 16 16 18 12 5 3 9 8 11 12 9 11 6 10 9 14 15 17 23 30 35 39 41 46 49 50 49 47 48 47 48 47 43 31 28 25 24 24 24 23 22 19 16 13 11 9 9
8 8 11 10 10 17 9 7 6 13 15 5 6 10 9 15 15 23 22 21 25 32 37 42 44 47 51 52 51 51 52 53 51 46 39 34 30 28 28 27 26 25 25 24 20 16 14 12 12
5 10 16 18 14 6 7 12 9 11 24 24 23 28 20 29 33 32 29 29 31 36 41 44 47 47 50 53 53 54 57 54 51 50 44 39 35 34 34 32 31 29 27 26 23 20 18 16 15
15 16 19 11 17 17 23 21 30 25 29 38 40 40 31 43 42 39 38 36 39 40 44 47 49 51 50 49 49 60 63 62 61 57 51 44 42 40 38 36 34 34 31 29 26 22 20 18 16
11 18 24 25 29 32 31 33 37 34 33 45 38 25 24 29 42 43 42 40 39 41 47 48 52 53 56 57 59 58 68 70 71 64 58 50 48 48 44 42 41 40 36 33 29 26 24 20 18
20 32 39 37 22 18 33 39 38 36 53 54 53 48 45 41 45 42 44 41 40 41 45 49 54 58 60 62 64 63 61 70 72 67 62 58 56 55 50 50 48 47 44 42 37 33 29 26 23
30 34 38 37 37 40 44 50 42 50 56 62 56 49 44 42 41 40 42 39 39 45 48 52 57 60 64 66 67 63 65 67 71 66 66 66 62 59 56 54 52 51 49 48 42 39 35 32 28
27 27 41 49 48 43 38 48 39 55 33 34 34 36 37 38 39 35 36 38 37 39 47 50 58 59 62 69 68 70 67 65 64 65 64 68 66 64 62 59 57 56 54 51 48 44 41 38 34
22 25 34 51 54 28 19 29 27 47 32 37 39 37 39 45 44 40 39 39 43 46 39 39 44 56 61 67 69 70 69 66 67 66 67 71 68 69 67 65 64 61 59 56 54 52 49 44 38
22 27 27 15 6 3 16 31 33 22 24 31 46 62 61 59 53 46 43 42 39 38 43 44 45 50 57 61 68 70 72 73 70 70 71 73 72 73 74 71 69 66 65 62 61 57 52 47 43
27 29 35 31 28 2 21 24 24 49 54 60 75 66 54 50 42 33 28 25 27 26 30 35 42 47 47 57 61 65 69 73 73 71 74 74 75 76 80 78 75 72 72 70 68 63 57 55 49
33 40 41 30 29 31 36 47 41 46 58 65 66 59 46 33 18 16 16 8 7 11 14 18 26 33 39 46 54 61 62 71 74 77 79 79 81 79 81 84 83 80 77 75 72 68 64 59 52
44 43 48 42 41 44 46 46 42 58 66 63 50 34 21 14 16 31 35 39 36 31 22 10 5 14 22 31 38 45 52 60 66 73 77 80 86 87 86 88 90 90 86 81 76 73 70 65 61
34 44 46 40 33 26 39 46 50 44 37 24 21 16 8 26 38 39 45 48 48 42 38 32 24 16 9 12 24 32 34 40 49 51 61 71 79 87 90 92 96 97 93 88 85 82 80 72 69
40 40 46 49 38 38 36 36 14 16 25 33 36 38 41 47 41 43 47 47 44 45 43 37 31 23 16 10 12 20 30 41 46 48 57 64 72 80 86 91 96 100 99 97 94 93 93 88 82
39 30 27 28 22 17 13 16 33 30 6 30 46 45 47 45 43 42 44 49 50 49 44 39 35 28 21 17 14 14 20 25 28 30 45 52 60 64 74 87 94 100 106 105 103 100 99 95 93
24 13 21 21 23 30 27 16 8 8 20 25 34 40 40 40 41 41 42 44 48 48 49 44 41 35 30 25 21 18 19 25 28 25 34 51 56 58 58 67 77 94 107 109 108 109 109 107 102
11 19 27 30 14 16 28 30 10 9 15 30 26 31 36 37 36 37 36 40 50 50 46 44 45 44 43 36 29 25 23 26 30 33 31 44 55 53 51 55 66 74 88 106 110 112 113 111 109
12 14 15 10 12 13 13 14 22 9 19 26 24 25 28 28 30 34 37 37 40 44 45 45 43 39 37 40 43 45 40 34 32 31 32 36 47 54 56 50 53 64 73 85 103 112 116 115 115
18 22 13 11 20 31 27 15 12 19 33 29 29 25 24 29 30 31 29 29 33 37 39 38 38 38 44 47 40 37 39 47 47 42 41 40 41 44 50 58 54 53 59 72 85 102 115 118 120
5 15 22 13 7 11 19 30 17 28 25 23 18 19 23 24 27 30 30 35 43 40 40 41 42 43 48 48 50 48 50 47 45 47 48 47 46 50 47 53 64 65 59 59 72 90 100 114 121
11 9 7 5 13 30 27 24 21 24 16 11 16 23 29 35 39 41 41 42 39 39 42 41 42 46 51 53 54 59 54 50 47 47 49 50 54 55 53 54 57 56 65 64 67 76 87 100 114
9 10 9 4 9 12 19 18 11 16 14 14 17 18 21 25 30 31 33 35 37 37 41 43 48 52 55 60 63 60 58 55 52 52 52 52 52 53 58 58 57 58 62 61 71 76 79 88 101
16 25 25 12 11 16 26 35 9 20 19 14 7 13 18 18 20 24 28 31 37 45 49 53 57 59 59 58 59 60 61 62 62 58 57 58 57 53 53 56 60 59 60 63 64 75 83 85 94
Wind_Direction_850mb
299 305 313 298 262 228 269 87 334 312 288 33 302 295 336 311 316 1 12 240 189 194 202 198 198 197 194 195 199 200 203 203 207 212 216 217 220 233 236 238 249 259 271 284 294 295 291 296 291
305 304 286 281 260 269 74 66 300 27 4 312 280 269 273 297 302 276 308 247 206 194 199 202 204 203 203 204 204 206 208 211 214 221 232 235 240 237 237 244 250 256 262 272 282 287 284 283 276
11 224 268 271 288 339 351 71 12 335 315 266 284 263 305 309 279 235 265 252 211 201 200 207 208 209 207 209 210 211 214 219 226 237 240 246 243 242 238 237 242 251 262 273 277 280 283 279 270
301 240 232 258 305 326 292 325 336 304 235 232 281 271 232 247 223 241 274 260 211 207 202 212 210 211 209 210 210 212 216 220 224 231 241 239 244 240 232 233 241 252 262 267 271 276 278 275 266
288 251 263 255 289 289 297 290 298 281 291 239 227 272 277 288 274 272 271 258 216 214 209 214 209 211 213 211 213 214 216 214 216 225 236 244 240 233 236 247 255 262 264 264 268 264 253 248 248
244 282 251 277 336 307 282 333 279 268 269 225 246 264 276 259 308 309 282 250 227 218 218 217 211 213 214 214 215 218 217 215 214 225 235 242 242 238 239 250 251 249 254 260 256 242 236 233 239
279 266 279 290 286 281 234 169 231 298 277 257 253 270 263 238 260 303 294 254 235 219 224 220 218 216 215 219 220 219 219 214 217 222 237 240 241 243 242 241 241 247 249 244 236 234 240 251 265
273 273 271 244 278 284 171 202 243 268 293 249 234 255 255 197 269 294 279 258 243 226 229 223 222 221 218 218 219 217 214 215 223 233 238 238 240 241 243 242 239 233 228 228 229 232 239 249 258
237 253 266 269 265 274 181 265 185 265 270 260 246 261 298 275 286 281 271 256 247 238 235 228 225 224 221 221 221 216 218 224 230 241 236 234 233 237 238 237 236 230 223 222 223 228 236 241 245
226 244 274 287 282 274 295 273 282 276 268 270 261 258 257 277 273 269 265 256 249 247 246 237 232 226 222 220 221 220 224 229 235 242 238 233 230 234 235 236 234 230 225 224 226 228 231 234 236
227 250 274 289 277 286 284 282 275 261 268 267 278 284 281 269 267 264 259 254 248 256 246 246 240 233 227 223 223 228 225 231 237 240 237 232 230 230 231 233 229 229 228 230 231 233 237 240 241
261 252 270 281 286 276 270 282 278 263 265 277 279 284 282 270 262 262 262 254 247 240 245 248 241 238 234 230 232 230 230 233 239 238 236 234 230 231 230 230 228 228 226 227 229 232 235 237 241
247 271 275 278 274 267 279 270 268 271 277 278 281 280 275 271 268 263 262 256 249 243 240 243 245 239 237 236 234 235 233 235 241 242 237 235 235 235 235 233 232 229 227 227 228 230 232 233 234
302 289 283 279 274 268 265 273 279 271 283 283 285 281 278 272 272 268 261 258 264 262 251 248 246 246 239 238 238 239 237 237 243 242 241 240 237 238 238 237 235 234 231 230 229 229 229 230 231
287 296 294 281 266 253 262 269 245 274 268 277 283 287 284 283 282 270 269 262 262 266 257 255 255 249 243 243 242 238 240 239 241 242 239 242 239 238 239 238 236 236 235 233 231 231 230 230 230
275 276 280 310 70 234 201 279 295 339 323 296 288 287 286 287 285 282 277 272 266 261 258 256 255 251 246 244 245 244 242 244 243 245 244 244 243 239 241 240 239 237 237 234 233 232 232 231 230
245 269 279 294 295 305 216 288 306 307 297 290 284 287 295 295 297 294 288 278 272 264 257 255 249 247 245 243 243 246 246 246 247 245 246 247 247 242 241 242 243 241 239 236 233 232 232 231 230
280 285 293 279 292 279 277 280 294 300 293 279 282 296 302 306 344 359 341 354 329 300 263 243 255 251 250 244 242 243 245 247 246 247 248 248 249 246 242 243 243 242 240 236 233 233 231 231 230
280 286 283 284 290 291 289 297 301 292 281 287 289 301 317 19 49 70 53 56 60 51 53 40 293 279 263 253 247 248 247 252 252 252 250 250 251 249 245 244 243 243 242 241 238 234 231 227 226
282 280 283 286 291 296 295 293 289 286 276 301 327 338 43 102 85 56 52 58 60 61 59 51 50 42 13 273 269 260 260 259 259 262 261 254 253 253 249 246 244 244 243 240 237 234 232 227 228
266 275 286 295 307 298 290 281 228 315 301 69 71 82 96 83 67 55 44 45 55 54 53 54 52 43 36 2 305 284 272 260 266 270 269 264 260 257 255 251 246 246 246 243 241 238 235 231 229
280 305 308 304 308 296 23 289 302 273 8 94 81 80 73 62 53 48 53 52 50 50 47 45 42 44 44 31 6 319 287 278 280 284 277 277 272 268 264 259 253 250 249 245 244 241 239 235 234
283 334 306 296 278 286 273 246 254 292 144 104 79 78 71 64 59 48 40 44 48 46 43 40 34 34 34 37 33 10 333 312 310 287 273 283 282 280 273 266 262 254 252 250 248 244 239 237 236
312 286 278 257 273 261 258 230 289 118 125 108 78 67 66 59 55 54 45 35 36 38 39 34 30 30 28 27 29 18 357 346 335 325 301 283 286 285 282 271 265 261 255 252 249 248 245 241 238
243 279 315 278 211 257 78 328 251 30 89 116 110 83 68 60 48 35 29 29 25 25 22 18 16 18 17 12 11 8 1 354 343 329 314 299 291 284 293 290 275 268 263 258 252 248 247 245 243
276 260 247 285 292 297 304 262 240 82 110 104 98 84 60 45 37 34 33 31 27 23 19 16 12 7 4 8 8 3 356 356 352 338 321 303 289 282 285 288 287 280 271 264 258 253 249 247 245
105 218 250 246 278 269 252 262 142 128 126 114 93 68 49 43 36 27 21 19 20 14 14 10 7 2 3 3 2 1 359 354 349 345 342 329 306 298 288 277 276 285 280 271 263 258 255 251 247
243 352 211 145 242 257 260 248 264 206 147 86 50 38 22 10 12 12 12 9 9 5 2 0 360 359 358 357 357 359 356 353 348 342 340 338 334 327 307 292 286 283 279 277 267 260 257 253 251
215 236 212 342 236 247 259 252 115 90 83 58 32 18 6 2 10 5 3 4 1 358 359 356 354 355 353 352 352 349 346 346 345 343 339 335 334 332 329 315 294 285 279 277 271 267 260 255 252
263 268 252 243 231 237 261 258 144 109 95 73 33 351 350 357 0 2 357 357 355 353 349 349 347 347 347 346 343 342 339 338 338 338 338 336 333 329 326 325 319 299 283 277 271 267 264 258 252